Temperature
9 8 8 9 9 9 9 9 9 9 9 9 9 9 9 9 9 9 9 10 10 10 10 10 10 10 10 10 10 10 10 10 10 10 10 10 10 10 11 11 11 11 11
8 8 8 8 8 8 8 8 8 8 8 8 8 9 9 9 9 9 9 9 9 9 9 9 9 9 9 9 9 10 10 10 10 10 10 10 10 10 10 10 10 10 10
7 7 7 7 7 7 7 7 7 7 8 8 8 8 8 8 8 8 8 8 8 8 9 9 9 9 9 8 9 9 9 9 9 9 9 9 9 10 10 10 10 10 9
7 7 7 7 7 7 7 7 7 7 7 7 7 7 7 8 8 8 8 8 8 8 8 8 8 8 8 8 8 8 8 8 9 9 9 9 9 9 9 9 9 9 9
6 6 6 6 6 6 6 6 6 6 6 6 6 7 7 7 7 7 7 7 7 7 7 7 7 7 7 7 8 7 8 8 8 8 8 8 8 8 8 8 8 8 8
6 5 5 5 5 5 6 5 5 6 5 5 6 6 6 6 6 6 6 6 6 6 6 7 7 7 7 7 7 7 7 7 7 7 7 7 7 7 7 7 7 7 8
5 5 5 5 5 5 5 5 5 5 5 5 5 5 5 5 5 5 5 5 5 6 6 6 6 6 6 6 6 7 7 6 7 7 7 7 7 7 7 7 7 7 7
4 4 4 4 4 4 4 4 4 4 4 4 3 4 3 4 4 4 4 5 5 5 5 5 5 5 6 6 6 6 6 6 6 6 6 6 6 6 6 6 6 7 7
4 4 4 4 4 4 4 3 3 3 3 3 3 3 3 3 3 3 4 4 4 4 4 4 5 5 5 5 5 5 5 5 5 6 6 6 6 6 6 6 6 6 6
3 3 3 3 3 3 3 3 3 3 3 3 2 2 2 2 2 2 3 3 3 3 4 4 4 4 4 4 4 5 5 5 5 5 5 5 5 5 5 6 6 6 6
3 3 3 2 3 3 3 2 2 2 2 2 2 2 2 2 2 2 2 2 3 3 3 3 3 3 3 4 4 4 4 4 4 4 5 5 5 5 5 5 5 5 5
2 2 2 2 2 2 2 2 2 2 1 1 2 2 2 1 1 1 1 2 2 2 3 3 3 3 3 3 3 3 3 3 3 4 4 4 4 5 5 5 5 5 5
2 1 1 1 1 1 1 1 1 1 1 1 1 1 1 1 1 1 1 1 1 1 2 2 2 2 2 2 2 3 3 3 3 3 4 4 4 4 4 4 4 4 4
1 1 1 1 1 1 1 1 1 1 1 1 1 1 1 1 0 0 0 0 0 0 1 1 1 1 2 2 2 2 2 2 2 3 3 3 3 4 4 4 4 4 4
1 0 0 0 0 0 0 0 0 0 0 0 0 0 0 0 -0 -0 -0 0 -0 -0 0 0 1 1 1 1 2 2 2 2 2 2 2 3 3 3 3 3 3 4 4
0 -0 -0 -0 -1 -0 -0 -0 -0 -0 -0 -0 -0 -0 -0 -0 -0 -0 -0 -0 -0 -0 -1 -0 0 0 0 1 1 1 1 1 1 2 2 2 3 3 3 3 3 3 3
-0 -0 -1 -1 -1 -1 -1 -1 -1 -1 -1 -1 -1 -1 -1 -1 -1 -1 -1 -1 -1 -1 -1 -0 -0 -0 0 0 0 1 1 1 1 1 1 2 2 2 2 3 3 3 3
-1 -1 -1 -1 -1 -1 -1 -1 -1 -1 -1 -1 -1 -1 -1 -1 -1 -1 -1 -1 -1 -1 -1 -1 -1 -0 -0 -0 -0 0 0 0 1 1 1 1 1 1 2 2 2 2 2
-1 -1 -1 -1 -1 -1 -1 -2 -2 -2 -2 -2 -2 -2 -2 -2 -2 -1 -1 -1 -1 -1 -1 -1 -1 -1 -1 -1 -1 -0 -0 0 0 0 0 1 1 1 1 1 1 1 2
-1 -1 -1 -1 -1 -2 -2 -2 -2 -2 -2 -2 -2 -2 -2 -2 -2 -2 -2 -2 -2 -2 -1 -1 -1 -1 -1 -1 -1 -0 -0 -0 0 0 0 0 0 0 0 1 1 1 1
-2 -2 -2 -2 -2 -2 -2 -2 -2 -2 -2 -2 -2 -2 -2 -2 -2 -2 -2 -2 -2 -2 -2 -2 -2 -2 -2 -1 -1 -1 -1 -1 -0 -0 -0 -0 -0 -0 0 0 0 0 0
-2 -2 -2 -2 -2 -2 -2 -2 -2 -3 -3 -3 -3 -3 -3 -2 -2 -2 -2 -2 -2 -2 -2 -2 -2 -2 -2 -2 -1 -1 -1 -1 -1 -1 -1 -1 -1 -1 -1 -0 -0 -0 -0
-2 -3 -3 -3 -3 -2 -3 -3 -3 -3 -3 -3 -3 -3 -3 -3 -3 -2 -2 -2 -2 -2 -2 -2 -2 -2 -2 -2 -2 -2 -2 -2 -2 -1 -1 -1 -1 -1 -1 -1 -1 -1 -1
-3 -3 -3 -3 -3 -3 -3 -3 -3 -3 -3 -3 -3 -3 -3 -3 -3 -3 -3 -3 -2 -2 -2 -2 -2 -2 -2 -2 -2 -2 -2 -2 -2 -2 -2 -2 -2 -2 -2 -1 -1 -2 -2
-3 -3 -3 -3 -3 -3 -3 -3 -3 -3 -3 -3 -3 -3 -3 -3 -3 -3 -3 -3 -2 -2 -2 -2 -3 -3 -3 -3 -3 -3 -3 -3 -3 -2 -2 -3 -3 -2 -2 -2 -2 -2 -2
-4 -4 -4 -4 -4 -3 -4 -4 -4 -4 -4 -3 -3 -3 -3 -3 -3 -3 -3 -3 -3 -3 -2 -3 -3 -3 -3 -3 -3 -3 -3 -3 -3 -3 -3 -3 -3 -3 -3 -3 -2 -2 -2
Wind_Speed
4 5 5 6 6 6 5 5 5 5 5 5 5 5 5 5 5 5 5 6 6 6 5 4 2 2 2 3 2 1 1 1 1 1 1 1 1 2 3 3 3 2 3
4 4 4 5 5 6 5 4 4 3 3 4 4 4 4 4 4 4 4 5 6 6 6 5 3 3 2 2 3 3 1 1 1 1 2 2 2 2 3 3 3 3 3
4 4 3 4 5 6 6 5 4 4 3 3 3 4 3 3 3 4 4 4 5 6 6 6 5 3 2 3 3 4 3 2 2 2 2 2 2 2 2 3 3 3 3
5 4 3 3 5 5 5 3 2 3 3 2 3 3 3 3 3 3 4 4 4 4 5 6 6 4 3 3 3 4 5 3 2 2 2 2 2 2 2 2 2 2 2
5 4 4 4 5 4 4 3 3 2 2 2 2 2 2 2 2 3 4 4 5 5 5 6 7 6 5 4 4 4 5 4 3 3 3 3 3 3 3 3 3 3 4
5 4 4 5 5 3 3 2 2 2 1 2 3 3 3 2 2 2 2 4 5 6 6 6 6 7 7 6 6 5 5 5 4 3 3 4 4 4 4 5 4 4 5
4 4 3 4 4 2 2 2 2 2 2 2 2 3 3 2 2 2 2 3 4 5 6 6 6 6 6 7 7 7 6 6 6 5 4 4 5 5 6 6 5 6 6
4 3 3 2 2 1 2 2 2 1 2 2 1 1 1 2 3 3 2 2 2 3 4 4 5 6 5 5 6 7 7 7 7 6 5 5 6 6 7 6 6 6 7
4 3 2 2 2 1 1 2 1 1 1 2 1 1 1 2 3 2 2 2 3 3 3 2 3 4 5 5 5 7 8 8 8 8 6 6 6 6 7 7 7 7 7
3 3 2 2 2 1 1 1 1 1 0 1 1 1 1 1 1 2 2 2 3 3 3 3 2 3 4 4 4 6 8 8 8 8 7 7 7 7 7 7 7 7 8
3 3 2 2 2 1 1 1 2 1 1 1 1 1 1 1 1 1 3 4 4 3 3 2 1 2 3 3 4 5 8 9 9 9 8 8 8 8 8 7 7 8 8
2 3 3 2 2 2 2 2 2 2 2 1 2 1 1 1 2 1 2 4 5 4 4 2 2 1 2 3 4 6 8 8 9 9 9 8 7 8 8 8 8 9 9
2 2 2 2 2 2 2 2 1 2 2 2 2 2 2 2 2 2 2 3 4 4 3 3 3 2 3 3 4 7 7 8 9 9 9 9 8 8 8 9 9 9 9
3 2 2 3 3 3 3 2 1 2 2 2 2 2 2 2 2 2 2 2 4 4 3 4 3 3 3 4 5 7 6 8 9 10 10 9 9 8 8 9 9 9 9
2 2 2 2 3 3 2 2 2 2 2 2 3 3 2 2 2 2 2 2 2 4 6 4 3 3 4 4 6 5 5 8 9 10 10 9 9 8 8 9 9 9 9
1 2 2 2 2 3 2 2 2 2 2 3 2 2 3 3 3 2 3 3 3 4 5 4 4 5 5 5 7 6 6 8 9 10 10 9 8 8 8 9 9 8 8
1 2 2 2 2 2 2 2 3 3 3 3 3 3 4 3 3 3 3 3 3 3 5 5 4 4 4 5 6 6 6 6 6 9 9 8 8 7 7 7 7 7 6
2 2 2 2 3 3 3 3 3 3 3 4 4 3 4 3 4 3 3 3 3 4 4 6 5 4 4 5 5 5 5 5 5 8 8 7 7 7 7 6 5 5 4
2 2 2 3 3 3 3 3 3 4 4 4 4 4 4 4 5 4 4 4 4 4 4 5 6 4 4 4 4 5 5 4 5 6 6 6 7 7 6 6 5 4 4
3 3 3 3 3 3 4 4 3 4 4 4 4 5 5 5 5 5 5 5 4 4 4 4 5 4 4 4 3 4 4 3 4 4 4 6 6 6 6 5 4 4 4
3 3 3 3 3 3 4 4 4 4 4 4 5 5 5 6 7 6 5 5 4 4 4 4 4 4 4 4 4 3 4 3 3 2 1 3 3 3 4 5 5 4 4
3 3 3 3 3 4 6 6 5 4 4 4 5 5 5 6 7 8 9 8 6 5 5 5 5 5 5 5 4 3 2 3 3 1 0 2 1 1 3 4 4 4 4
3 3 3 3 4 5 7 7 6 4 4 4 5 5 5 6 6 5 8 8 7 7 7 6 6 7 6 6 4 3 3 3 4 2 0 2 1 2 3 4 4 3 3
3 3 4 4 4 5 7 7 6 4 4 5 5 6 6 6 6 6 5 5 5 6 6 5 6 6 6 5 4 3 3 2 2 1 1 1 1 2 3 4 3 3 3
3 3 4 4 4 6 8 7 6 3 4 5 5 5 5 6 8 8 5 5 5 5 5 6 6 6 6 5 4 1 1 1 2 2 0 1 0 1 2 2 3 3 2
3 4 4 4 4 5 7 7 5 3 4 4 5 5 7 7 8 7 4 4 5 5 4 3 3 4 4 3 4 2 3 2 2 2 1 1 1 1 1 2 2 2 2
Wind_Direction
33 26 21 20 18 18 13 9 16 32 38 34 33 35 29 25 22 16 11 3 358 357 354 345 350 9 19 24 23 33 44 37 2 337 316 278 264 238 217 206 205 210 210
36 29 21 16 13 13 11 11 23 30 42 41 26 23 22 20 23 17 10 4 1 358 354 345 338 340 6 1 8 357 334 330 320 295 281 275 280 257 229 217 217 222 226
43 35 30 17 7 13 16 20 29 33 36 33 10 6 16 15 17 14 9 12 10 9 2 355 348 345 350 8 0 358 345 318 296 280 280 275 272 272 246 231 222 224 234
46 40 31 14 9 17 18 19 21 15 14 15 360 346 359 5 2 16 22 21 25 21 13 3 356 352 354 6 360 350 353 335 317 303 289 280 278 286 286 273 249 240 250
43 40 29 15 18 19 19 11 3 8 11 7 354 345 345 345 348 31 33 33 36 36 28 13 9 3 1 8 1 351 349 342 327 313 301 289 280 277 277 278 272 262 266
38 38 31 20 21 21 14 7 359 7 15 360 353 352 336 334 10 31 28 43 44 40 32 25 24 16 5 8 4 359 343 342 323 308 301 293 287 283 279 276 275 271 266
31 33 31 25 24 18 358 2 4 11 13 10 18 357 349 353 24 20 24 39 38 38 36 30 27 21 10 4 2 0 346 338 331 313 303 293 287 282 279 277 275 272 264
23 27 36 31 21 13 10 8 18 6 348 6 24 16 351 346 8 348 349 5 5 20 21 19 21 16 11 12 4 357 347 339 330 314 303 295 290 284 278 272 270 274 268
16 22 34 29 20 21 332 331 359 11 318 331 15 107 177 240 309 307 335 336 346 345 340 6 11 9 6 9 5 356 345 335 327 315 301 294 291 286 281 275 271 272 275
6 14 18 16 9 5 303 292 334 320 276 293 316 324 278 226 245 297 310 324 327 319 315 318 337 349 357 1 351 344 338 332 324 318 306 298 291 288 285 281 280 280 277
346 351 354 355 348 335 303 296 308 293 279 276 285 295 317 322 292 269 292 309 316 304 302 293 302 340 341 339 342 334 333 329 323 318 314 300 294 295 293 291 285 283 281
311 325 337 337 329 320 293 279 274 276 268 292 303 286 266 256 270 260 274 298 299 302 306 293 280 297 318 322 320 322 324 326 324 321 316 306 299 294 295 295 291 285 285
277 276 316 308 308 306 300 294 267 277 260 265 268 279 277 270 272 271 267 285 293 297 298 300 271 274 299 303 307 309 313 320 320 318 314 305 299 295 292 293 292 289 287
252 267 297 301 303 306 309 296 269 269 266 262 274 278 281 282 277 266 253 265 298 296 290 283 292 284 297 293 294 302 308 312 313 312 310 302 291 288 286 289 289 289 288
273 279 291 293 306 306 299 290 274 275 271 255 260 267 277 281 273 268 260 244 250 282 286 282 292 297 299 295 295 300 300 303 304 306 305 299 286 280 281 283 284 283 283
288 266 273 283 292 297 292 277 276 277 274 265 262 266 278 287 278 279 263 265 254 254 274 279 281 296 303 300 300 298 292 298 298 302 302 298 287 278 279 279 279 280 280
270 269 271 272 272 272 281 274 274 277 272 273 275 270 280 285 277 276 275 275 267 254 268 286 282 292 287 295 300 292 288 292 295 299 300 300 293 284 288 283 280 277 276
262 260 264 265 269 267 260 259 271 278 271 268 268 266 274 280 278 275 268 268 266 259 259 279 288 290 280 282 288 285 291 290 291 295 297 299 299 293 287 285 288 284 286
277 270 260 258 266 268 263 259 254 263 263 264 263 258 264 269 273 276 272 267 266 270 264 270 283 281 284 293 297 293 290 287 294 294 293 298 299 299 299 288 283 286 286
278 278 269 262 259 261 262 261 255 261 263 267 265 259 260 256 258 262 266 262 261 264 266 270 278 282 286 289 292 290 294 293 298 296 299 301 302 301 302 304 300 298 296
280 279 280 283 278 266 261 266 259 264 263 273 270 266 264 265 267 266 267 262 256 257 263 269 276 283 285 293 287 276 279 295 301 279 290 303 310 311 312 314 307 301 306
291 290 288 284 287 291 295 289 281 261 261 268 274 276 275 270 271 277 277 276 262 253 254 257 266 268 274 275 279 276 279 296 298 286 331 309 314 298 297 299 303 303 309
277 279 279 278 277 286 299 297 297 281 261 263 266 271 279 280 283 274 276 279 271 261 251 248 252 260 265 267 269 270 269 271 271 264 41 300 326 301 296 298 303 303 308
269 272 275 273 276 284 297 296 301 287 267 265 266 263 264 272 275 277 274 275 269 264 260 252 249 257 261 261 247 247 256 280 293 289 156 256 309 309 313 302 299 285 290
275 274 277 274 279 287 294 295 302 280 275 275 275 272 269 269 279 286 276 272 277 280 278 264 268 271 275 274 266 245 247 252 283 288 189 176 263 329 319 307 302 309 299
274 282 286 280 275 280 296 300 300 273 282 287 286 281 277 276 283 288 265 261 269 278 290 301 302 305 299 293 290 264 229 225 257 271 243 186 207 310 317 311 322 318 308
Height
1521 1520 1520 1519 1519 1519 1518 1517 1517 1516 1516 1516 1515 1515 1515 1514 1514 1514 1514 1514 1514 1514 1514 1514 1514 1513 1513 1513 1513 1513 1513 1514 1514 1514 1515 1515 1516 1516 1516 1517 1517 1518 1518
1519 1519 1518 1517 1517 1516 1516 1515 1514 1514 1513 1513 1513 1513 1512 1512 1512 1512 1511 1511 1511 1511 1511 1511 1511 1511 1510 1510 1510 1510 1510 1510 1511 1511 1512 1512 1513 1513 1513 1513 1514 1515 1515
1517 1517 1516 1515 1515 1514 1513 1512 1512 1511 1510 1510 1510 1510 1510 1510 1509 1509 1509 1509 1509 1508 1508 1508 1508 1507 1507 1507 1507 1506 1507 1507 1507 1508 1508 1509 1509 1510 1510 1510 1511 1511 1512
1515 1515 1514 1513 1512 1512 1511 1510 1509 1508 1508 1507 1507 1507 1507 1507 1507 1507 1506 1506 1506 1506 1505 1505 1505 1504 1504 1504 1503 1503 1503 1503 1504 1504 1505 1506 1506 1506 1507 1507 1507 1508 1508
1513 1512 1512 1511 1510 1509 1509 1508 1507 1506 1505 1504 1504 1504 1504 1504 1504 1504 1504 1503 1503 1503 1502 1502 1502 1502 1501 1501 1501 1501 1500 1500 1501 1501 1501 1502 1502 1503 1503 1504 1504 1504 1505
1511 1510 1509 1509 1508 1507 1506 1505 1505 1504 1503 1502 1501 1501 1501 1501 1501 1501 1501 1501 1500 1500 1500 1499 1499 1499 1499 1498 1498 1497 1497 1497 1497 1498 1498 1498 1498 1499 1500 1500 1500 1500 1501
1509 1508 1507 1506 1505 1505 1504 1503 1502 1501 1500 1500 1499 1498 1498 1498 1498 1499 1499 1498 1498 1498 1497 1497 1496 1496 1496 1495 1495 1494 1495 1494 1494 1494 1494 1494 1495 1495 1496 1496 1496 1497 1497
1506 1506 1504 1504 1503 1502 1501 1501 1500 1498 1498 1498 1498 1496 1496 1496 1496 1496 1496 1496 1495 1495 1494 1494 1493 1493 1492 1492 1492 1492 1491 1491 1491 1491 1490 1491 1491 1491 1492 1492 1492 1493 1493
1503 1503 1502 1501 1500 1499 1498 1498 1497 1496 1496 1496 1497 1497 1496 1494 1493 1493 1493 1493 1493 1492 1492 1491 1490 1490 1489 1489 1488 1488 1488 1488 1487 1487 1487 1486 1487 1487 1488 1488 1488 1488 1488
1501 1500 1499 1498 1498 1497 1496 1495 1495 1495 1494 1493 1494 1494 1495 1494 1493 1490 1490 1490 1490 1489 1489 1488 1487 1487 1486 1486 1486 1485 1485 1484 1484 1483 1482 1482 1483 1483 1483 1483 1484 1484 1484
1498 1497 1496 1495 1495 1494 1493 1493 1492 1492 1492 1491 1491 1491 1491 1491 1491 1490 1487 1486 1486 1486 1486 1485 1484 1484 1483 1483 1482 1481 1481 1480 1480 1479 1478 1478 1478 1478 1478 1479 1479 1479 1480
1495 1494 1493 1492 1491 1491 1490 1490 1489 1489 1489 1489 1488 1488 1488 1488 1487 1487 1485 1483 1482 1482 1482 1481 1481 1481 1480 1479 1478 1478 1477 1476 1475 1474 1474 1473 1473 1473 1474 1474 1474 1475 1475
1491 1491 1490 1489 1488 1488 1487 1487 1486 1486 1486 1486 1485 1485 1485 1485 1485 1484 1483 1481 1479 1478 1478 1478 1478 1477 1477 1475 1474 1474 1473 1472 1471 1470 1469 1468 1468 1468 1468 1469 1469 1469 1469
1489 1488 1487 1486 1485 1485 1484 1484 1483 1483 1483 1483 1482 1482 1482 1482 1482 1481 1481 1479 1477 1475 1475 1474 1474 1474 1473 1472 1471 1470 1468 1468 1467 1465 1464 1463 1463 1463 1463 1463 1464 1464 1464
1486 1485 1484 1484 1483 1482 1481 1481 1480 1480 1480 1480 1479 1479 1479 1479 1478 1478 1477 1477 1476 1473 1471 1471 1471 1470 1469 1468 1467 1465 1464 1463 1463 1461 1459 1458 1458 1458 1458 1458 1458 1459 1459
1483 1482 1482 1481 1480 1479 1479 1478 1478 1477 1477 1477 1476 1476 1476 1475 1475 1474 1474 1474 1473 1472 1469 1467 1467 1466 1465 1464 1463 1462 1460 1459 1458 1456 1454 1453 1453 1453 1453 1453 1453 1454 1454
1480 1479 1479 1478 1477 1477 1476 1476 1475 1475 1474 1474 1473 1473 1472 1472 1471 1471 1471 1470 1469 1468 1466 1464 1464 1462 1461 1460 1458 1457 1456 1454 1453 1452 1450 1449 1448 1448 1448 1448 1448 1449 1449
1477 1477 1476 1475 1474 1474 1473 1473 1472 1472 1471 1470 1470 1469 1469 1468 1468 1467 1467 1466 1465 1464 1463 1460 1459 1458 1457 1456 1454 1452 1451 1450 1449 1447 1446 1444 1444 1444 1443 1443 1444 1444 1444
1474 1474 1473 1472 1471 1471 1470 1470 1470 1469 1468 1467 1467 1466 1465 1465 1464 1463 1463 1462 1461 1460 1459 1457 1455 1453 1452 1451 1450 1448 1447 1446 1444 1443 1442 1441 1440 1440 1439 1439 1439 1439 1440
1471 1471 1470 1469 1469 1468 1467 1467 1467 1466 1465 1464 1463 1463 1462 1461 1461 1460 1459 1458 1457 1456 1455 1453 1451 1450 1448 1447 1446 1444 1442 1441 1440 1439 1438 1438 1437 1436 1435 1435 1435 1435 1436
1469 1468 1467 1466 1466 1465 1465 1464 1464 1463 1462 1461 1460 1459 1458 1458 1457 1456 1455 1454 1453 1452 1451 1449 1448 1446 1444 1443 1441 1440 1439 1437 1436 1435 1434 1434 1433 1432 1432 1432 1431 1431 1432
1466 1465 1464 1463 1463 1462 1462 1461 1461 1459 1458 1457 1456 1455 1455 1454 1453 1452 1451 1451 1450 1448 1447 1446 1444 1442 1440 1439 1438 1436 1435 1433 1431 1432 1431 1430 1430 1429 1429 1429 1428 1428 1428
1462 1462 1461 1460 1460 1459 1459 1458 1457 1456 1455 1454 1453 1452 1451 1450 1449 1448 1447 1446 1445 1444 1443 1442 1440 1438 1437 1436 1434 1432 1431 1430 1429 1428 1428 1426 1427 1426 1426 1425 1425 1425 1425
1459 1458 1458 1457 1457 1456 1455 1455 1454 1453 1452 1451 1449 1448 1447 1446 1445 1444 1443 1442 1440 1439 1438 1437 1436 1434 1433 1432 1431 1430 1428 1427 1426 1426 1426 1424 1423 1423 1423 1422 1422 1422 1422
1456 1455 1455 1454 1453 1452 1452 1451 1450 1449 1448 1447 1446 1445 1443 1442 1442 1441 1439 1438 1436 1435 1434 1433 1432 1430 1429 1428 1427 1426 1425 1424 1423 1423 1423 1422 1421 1420 1419 1419 1419 1419 1419
1453 1452 1451 1451 1450 1449 1448 1448 1447 1446 1444 1443 1442 1441 1440 1439 1438 1437 1436 1434 1432 1431 1430 1428 1427 1426 1425 1424 1424 1423 1422 1421 1420 1420 1420 1419 1418 1418 1417 1416 1416 1416 1417